Location: Peebles
(55.6412°N, 3.1714°W)
Time: 06:17:40
(UTC+01:00)

Altair 2 - Visible Passes

Search period start: 06 June 2026 00:00
Search period end: 16 June 2026 00:00
Orbit: 703 x 2521 km, 96.4° (Epoch: 5 June)

Date Brightness Start Highest point End Pass type
(mag) Time Alt. Az. Time Alt. Az. Time Alt. Az.
6 Jun 11.8 01:34:58 10° NNE 01:44:47 26° NNW 01:54:38 10° WNW visible
6 Jun 12.0 03:29:12 10° NE 03:37:00 19° N 03:45:12 10° NW visible
6 Jun 10.8 23:21:06 10° NNE 23:34:12 53° WNW 23:46:16 10° SW visible
7 Jun 11.7 01:17:44 10° NNE 01:27:59 27° NNW 01:38:08 10° W visible
7 Jun 12.0 03:12:20 10° NNE 03:20:18 19° N 03:28:35 10° NW visible
7 Jun 10.7 23:03:44 10° NNE 23:17:08 58° WNW 23:29:13 10° SW visible
8 Jun 11.7 01:00:29 10° NNE 01:11:11 30° NW 01:21:34 10° W visible
8 Jun 12.0 02:55:26 10° NNE 03:03:37 20° N 03:12:00 10° NW visible
8 Jun 10.5 22:46:22 10° NNE 23:00:03 64° WNW 23:12:05 10° SW visible
9 Jun 11.6 00:43:13 10° NNE 00:54:20 32° NW 01:04:57 10° W visible
9 Jun 11.9 02:38:28 10° NNE 02:46:54 20° N 02:55:27 10° NW visible
9 Jun 10.4 22:29:01 10° NNE 22:42:53 70° WNW 22:54:52 10° SW visible
10 Jun 11.5 00:25:56 10° NNE 00:37:29 35° NW 00:48:16 10° W visible
10 Jun 11.9 02:21:29 10° NNE 02:30:12 21° NNW 02:38:55 10° NW visible
11 Jun 11.4 00:08:39 10° NNE 00:20:35 37° NW 00:31:30 10° WSW visible
11 Jun 11.9 02:04:27 10° NNE 02:13:29 22° NNW 02:22:23 10° WNW visible
11 Jun 11.2 23:51:22 10° NNE 00:03:39 41° NW 00:14:39 10° WSW visible
12 Jun 11.8 01:47:23 10° NNE 01:56:45 23° NNW 02:05:50 10° WNW visible
12 Jun 11.1 23:34:04 10° NNE 23:46:41 45° NW 23:57:45 10° WSW visible
13 Jun 11.8 01:30:17 10° NNE 01:40:00 24° NNW 01:49:16 10° WNW visible
13 Jun 12.0 03:23:52 10° NE 03:32:06 20° N 03:40:25 10° NW visible
13 Jun 10.9 23:16:45 10° NNE 23:29:40 49° NW 23:40:44 10° WSW visible
14 Jun 11.7 01:13:09 10° NNE 01:23:14 26° NNW 01:32:41 10° WNW visible
14 Jun 12.0 03:07:09 10° NE 03:15:25 20° N 03:23:39 10° NW visible
14 Jun 10.7 22:59:27 10° NNE 23:12:38 54° WNW 23:23:39 10° SW visible
15 Jun 11.7 00:56:00 10° NNE 01:06:26 28° NNW 01:16:02 10° W visible
15 Jun 12.0 02:50:24 10° NE 02:58:44 20° N 03:06:55 10° NW visible
15 Jun 10.6 22:42:08 10° NNE 22:55:32 59° WNW 23:06:30 10° SW visible
